Date,TemperatureHighF,TemperatureAvgF,TemperatureLowF,DewpointHighF,DewpointAvgF,DewpointLowF,HumidityHigh,HumidityAvg,HumidityLow,PressureMaxIn,PressureMinIn,WindSpeedMaxMPH,WindSpeedAvgMPH,GustSpeedMaxMPH,PrecipitationSumIn
2013-1-1,38,35,32,34,30,24,92,82,59,30.07,29.94,18,6,36,1.11
2013-1-2,33,31,26,30,27,22,92,86,74,30.43,30.07,13,6,26,0.00
2013-1-3,42,33,23,36,27,20,91,80,58,30.67,30.43,6,2,13,0.00
2013-1-4,48,40,34,40,36,32,92,87,73,30.67,30.56,17,6,36,0.00
2013-1-5,38,36,31,35,33,29,92,91,87,30.56,30.46,12,7,88,0.00
2013-1-6,48,37,28,36,31,25,92,78,56,30.48,30.37,12,3,23,0.00
2013-1-7,46,38,30,32,23,9,84,55,23,30.37,30.31,8,3,13,0.00
2013-1-8,56,44,32,26,8,-6,51,23,8,30.37,30.29,9,2,15,0.00
2013-1-9,49,41,33,30,22,15,66,47,32,30.29,30.08,8,2,17,0.00
2013-1-10,37,31,27,31,27,22,92,86,55,30.08,29.96,24,2,85,0.05
2013-1-11,33,31,27,31,28,23,92,90,87,30.08,29.92,0,0,0,0.00
2013-1-12,38,30,26,29,24,20,92,81,61,30.08,29.92,5,1,9,0.00
2013-1-13,42,32,30,30,28,27,91,86,62,29.91,29.84,13,4,28,0.00
2013-1-14,30,26,22,27,23,19,91,90,88,29.91,29.85,7,3,16,0.00
2013-1-15,26,23,19,23,20,16,89,88,87,29.85,29.67,15,2,28,0.00
2013-1-16,28,20,16,20,15,13,89,82,60,29.79,29.65,22,4,44,0.00
2013-1-17,19,16,11,14,11,7,86,82,76,29.89,29.73,17,8,34,0.00
2013-1-18,29,24,14,23,15,8,85,68,56,29.83,29.47,12,5,18,0.00
2013-1-19,38,32,26,34,29,22,91,88,84,29.47,29.26,12,5,21,0.25
2013-1-20,46,33,23,34,27,20,89,79,53,29.51,29.32,49,4,110,0.35
2013-1-21,31,27,22,27,24,18,90,87,83,29.62,29.47,0,0,0,0.00
2013-1-22,39,31,26,28,25,22,91,79,63,29.72,29.62,18,2,83,0.00
2013-1-23,38,32,26,27,23,18,88,70,56,29.72,29.65,15,6,26,0.00
2013-1-24,29,25,23,22,20,19,87,83,73,29.89,29.71,14,7,24,0.00
2013-1-25,28,22,18,19,17,11,87,79,64,29.96,29.87,13,5,21,0.00
2013-1-26,40,26,17,19,14,8,80,59,31,30.05,29.76,9,3,15,0.00
2013-1-27,42,35,26,33,26,14,91,70,33,30.04,29.84,13,3,23,0.16
2013-1-28,39,32,29,31,29,26,92,88,71,30.23,29.87,71,6,134,0.00
2013-1-29,41,37,29,38,33,24,92,87,75,30.31,30.23,12,4,23,0.27
2013-1-30,49,43,39,42,40,36,92,89,69,30.34,30.21,16,5,39,0.87
2013-1-31,44,40,38,37,34,28,91,78,56,30.35,30.26,13,6,25,0.01
2013-2-1,43,39,32,40,36,30,92,91,88,30.26,29.53,20,8,39,2.77
2013-2-2,42,31,24,40,28,21,91,89,83,29.88,29.49,31,8,67,0.47
2013-2-3,28,25,24,23,22,20,89,86,78,30.25,29.89,14,6,31,0.00
2013-2-4,37,32,25,35,29,21,92,90,85,30.22,30.15,47,8,81,0.21
2013-2-5,37,33,27,35,31,24,92,91,85,30.15,29.74,18,7,40,0.22
2013-2-6,30,27,24,28,24,21,90,89,88,29.75,29.56,0,0,0,0.00
2013-2-7,27,24,21,23,20,17,90,87,82,29.98,29.73,0,0,0,0.00
2013-2-8,33,23,18,25,19,15,89,83,68,29.99,29.89,0,0,0,0.00
2013-2-9,32,21,15,23,16,11,88,78,52,30.05,29.96,0,0,0,0.00
2013-2-10,32,22,14,28,15,9,91,75,50,29.96,29.58,0,0,0,0.00
2013-2-11,32,30,28,29,28,26,92,90,85,29.58,29.49,0,0,0,0.00
2013-2-12,30,27,25,26,24,22,91,88,79,29.92,29.57,0,0,0,0.00
2013-2-13,25,22,21,22,19,16,90,86,76,30.07,29.92,0,0,0,0.00
2013-2-14,32,28,16,29,20,9,91,72,53,30.14,30.02,0,0,0,0.00
2013-2-15,34,31,28,30,28,25,91,88,79,30.19,30.01,9,2,15,0.00
2013-2-16,37,31,26,29,26,22,91,82,67,30.18,30.12,9,5,16,0.00
2013-2-17,40,29,24,23,20,18,82,70,48,30.12,30.00,12,7,25,0.00
2013-2-18,40,29,25,26,21,17,86,70,47,30.07,29.99,10,5,18,0.00
2013-2-19,31,31,30,23,23,22,74,72,70,30.00,29.99,3,2,7,0.00
2013-2-20,40,32,23,26,20,13,77,61,47,29.99,29.92,13,6,25,0.00
2013-2-21,28,23,17,17,15,11,79,72,52,29.92,29.74,16,7,27,0.00
2013-2-22,23,16,7,14,10,0,83,74,60,29.74,29.63,14,7,23,0.00
2013-2-23,14,9,4,4,1,-1,83,71,56,29.77,29.59,16,7,28,0.00
2013-2-24,12,8,7,5,4,3,86,81,68,29.91,29.77,13,6,179,0.00
2013-2-25,21,11,4,8,4,0,87,74,49,30.08,29.90,10,3,18,0.00
2013-2-26,29,18,7,12,7,2,81,63,37,30.21,30.08,12,5,26,0.00
2013-2-27,28,18,12,15,11,7,89,73,54,30.24,30.20,12,5,21,0.00
2013-2-28,37,24,14,13,10,2,90,58,29,30.21,30.15,9,4,15,0.00
2013-3-1,34,25,16,17,8,0,90,52,24,30.15,30.05,17,5,28,0.00
2013-3-2,29,21,15,16,14,11,91,75,51,30.14,30.07,13,4,179,0.00
2013-3-3,40,25,8,19,13,5,90,64,40,30.12,30.05,8,3,14,0.00
2013-3-4,46,35,29,21,16,11,66,46,29,30.08,29.99,9,3,16,0.00
2013-3-5,42,36,30,19,10,3,62,34,23,29.99,29.79,13,4,20,0.00
2013-3-6,41,36,30,33,23,12,86,62,38,29.79,29.62,10,4,19,0.26
2013-3-7,45,36,32,29,23,16,76,59,44,29.72,29.64,10,3,20,0.01
2013-3-8,37,33,29,31,28,24,92,82,61,29.81,29.60,12,3,25,0.53
2013-3-9,38,32,28,28,26,24,92,79,62,29.79,29.73,9,2,16,0.00
2013-3-10,43,32,27,28,23,20,90,70,45,29.73,29.61,9,3,16,0.12
2013-3-11,39,31,27,28,24,20,91,78,51,29.65,29.57,7,3,15,0.06
2013-3-12,33,27,18,24,21,15,91,79,65,29.58,29.50,17,5,34,0.68
2013-3-13,18,16,11,15,12,7,90,85,76,29.73,29.54,34,5,34,0.00
2013-3-14,19,14,8,14,6,0,87,74,47,29.83,29.72,134,15,134,0.00
2013-3-15,26,19,12,12,6,-3,86,59,28,30.03,29.83,28,11,28,0.00
2013-3-16,41,30,18,20,5,-5,61,35,21,30.02,29.80,36,11,36,0.00
2013-3-17,38,32,28,29,25,20,90,76,56,29.81,29.55,39,11,39,0.07
2013-3-18,33,29,27,27,26,25,91,88,78,29.57,29.44,32,4,32,0.08
2013-3-19,37,30,26,27,24,21,91,78,54,29.74,29.57,50,3,50,0.00
2013-3-20,35,30,27,27,24,21,91,79,66,30.03,29.66,41,9,41,0.09
2013-3-21,42,33,25,25,21,15,91,65,38,30.08,29.99,13,4,13,0.00
2013-3-22,54,42,33,29,21,14,70,45,30,30.00,29.79,15,6,15,0.00
2013-3-23,41,38,34,30,28,25,82,68,60,29.85,29.78,19,6,19,0.06
2013-3-24,41,36,31,35,31,28,90,85,73,29.78,29.68,17,6,17,0.10
2013-3-25,32,30,27,30,28,25,92,90,87,29.71,29.67,18,6,18,0.00
2013-3-26,28,27,26,26,24,24,91,91,89,29.74,29.64,13,5,13,0.00
2013-3-27,41,32,26,28,25,21,91,76,55,29.76,29.66,23,6,23,0.00
2013-3-28,36,34,27,33,30,25,91,87,70,29.85,29.73,84,14,89,1.34
2013-3-29,35,30,27,33,27,23,91,89,84,29.84,29.70,84,34,84,0.24
2013-3-30,37,34,30,34,31,27,91,88,76,29.70,29.64,223,5,223,0.34
2013-3-31,33,28,24,28,23,19,91,82,62,29.79,29.69,20,9,21,0.00
2013-4-1,45,32,22,26,20,15,79,62,31,29.71,29.62,22,9,22,0.00
2013-4-2,44,35,28,30,26,23,82,70,53,29.77,29.62,21,6,21,0.00
2013-4-3,44,35,28,27,24,16,88,66,35,29.80,29.75,18,6,18,0.00
2013-4-4,50,39,31,31,26,20,75,60,32,29.75,29.65,25,8,25,0.00
2013-4-5,41,35,31,30,27,24,91,73,54,29.85,29.63,20,7,20,0.00
2013-4-6,40,33,28,32,28,24,91,82,66,30.06,29.83,30,12,30,0.00
2013-4-7,40,32,27,25,23,21,85,70,50,30.05,29.87,23,10,23,0.00
2013-4-8,37,32,28,31,26,22,91,79,63,29.87,29.76,26,8,26,0.11
2013-4-9,43,34,29,36,29,26,91,83,62,29.88,29.71,41,13,41,0.39
2013-4-10,46,38,30,34,30,26,90,74,49,30.00,29.88,30,12,30,0.22
2013-4-11,52,43,38,44,39,34,90,86,66,29.97,29.76,75,10,75,2.62
2013-4-12,48,38,34,35,33,29,90,83,51,30.08,29.84,33,11,33,1.19
2013-4-13,52,42,34,34,31,25,90,68,37,30.33,30.08,28,8,28,0.17
2013-4-14,66,54,43,37,31,28,60,43,26,30.37,30.30,23,7,23,0.00
2013-4-15,63,54,43,37,32,23,68,45,25,30.32,30.25,26,7,26,0.00
2013-4-16,61,53,46,42,37,32,72,54,44,30.34,30.25,20,6,20,0.00
2013-4-17,69,56,44,39,33,20,74,45,19,30.34,30.26,18,7,18,0.00
2013-4-18,61,53,43,43,39,35,86,60,41,30.29,30.26,23,7,23,0.04
2013-4-19,42,37,32,38,32,25,90,84,74,30.29,30.24,23,7,23,0.47
2013-4-20,34,31,28,31,28,23,91,88,67,30.24,30.07,78,17,78,0.00
2013-4-21,38,35,33,34,32,30,91,88,81,30.13,30.09,23,7,23,0.00
2013-4-22,41,37,34,34,32,31,90,82,67,30.17,30.07,22,7,22,0.00
2013-4-23,53,42,32,35,31,28,91,66,44,30.34,30.16,26,8,26,0.00
2013-4-24,62,50,39,40,35,30,72,57,35,30.43,30.34,16,7,16,0.00
2013-4-25,67,56,46,39,35,28,69,47,26,30.40,30.27,22,7,22,0.00
2013-4-26,55,51,45,46,41,33,89,71,43,30.27,29.87,28,8,28,0.49
2013-4-27,46,33,27,42,30,24,91,89,85,29.87,29.74,81,7,81,1.11
2013-4-28,35,31,26,32,28,24,92,88,74,30.06,29.86,67,4,67,0.02
2013-4-29,46,38,32,41,36,30,92,90,81,30.15,30.02,22,6,22,0.16
2013-4-30,61,49,41,47,42,38,91,77,48,30.12,30.06,134,7,134,0.07
2013-5-1,64,48,41,47,40,37,90,77,38,30.17,30.10,30,9,84,0.02
2013-5-2,59,49,44,47,41,37,87,74,54,30.17,30.06,32,9,32,0.83
2013-5-3,46,41,39,40,38,36,91,89,73,30.14,30.00,18,7,18,1.76
2013-5-4,46,41,39,42,38,35,91,89,79,30.25,30.12,22,7,22,0.09
2013-5-5,57,47,38,43,38,34,87,71,49,30.25,30.19,28,10,28,0.01
2013-5-6,53,47,43,44,41,40,89,80,63,30.19,30.14,20,6,20,0.11
2013-5-7,58,49,40,41,37,33,89,66,41,30.15,30.10,19,6,19,0.00
2013-5-8,63,52,43,47,38,30,82,61,33,30.13,30.07,21,6,21,0.02
2013-5-9,57,49,44,46,43,41,90,82,59,30.15,30.08,18,5,18,0.48
2013-5-10,47,41,37,43,36,32,91,83,57,30.18,30.08,15,7,15,0.71
2013-5-11,47,40,37,37,35,30,90,80,53,30.18,30.11,16,5,16,0.00
2013-5-12,42,37,34,36,33,31,90,86,73,30.25,30.14,21,6,21,0.14
2013-5-13,51,41,32,40,34,29,90,76,57,30.25,30.15,22,6,22,0.00
2013-5-14,61,50,38,41,36,33,89,63,35,30.15,29.82,28,10,28,0.00
2013-5-15,50,45,41,42,39,35,90,79,58,29.82,29.70,28,7,28,0.78
2013-5-16,43,38,36,39,36,34,91,89,84,29.70,29.57,17,6,17,0.62
2013-5-17,45,38,34,38,34,32,91,85,68,29.84,29.62,38,4,38,0.91
2013-5-18,53,42,35,42,34,27,90,76,49,29.87,29.80,26,9,26,0.25
2013-5-19,47,39,35,38,33,29,90,80,58,30.04,29.84,31,9,31,0.90
2013-5-20,47,38,35,38,34,30,90,85,54,30.07,30.02,36,12,36,0.25
2013-5-21,40,38,35,37,35,33,91,89,85,30.06,29.99,24,12,24,1.49
2013-5-22,40,38,34,38,35,31,91,89,85,30.06,29.96,21,7,21,0.05
2013-5-23,45,36,29,34,30,26,90,81,50,30.04,29.89,27,7,27,0.11
2013-5-24,39,31,27,30,26,22,91,80,55,29.95,29.90,24,6,24,0.04
2013-5-25,38,32,29,33,28,26,91,86,76,30.10,29.85,28,5,28,0.09
2013-5-26,40,35,31,32,29,26,91,82,60,30.14,30.09,15,4,15,0.08
2013-5-27,55,44,29,39,33,27,91,67,45,30.09,29.91,30,6,30,0.00
2013-5-28,55,47,41,42,36,32,82,67,44,29.91,29.77,28,7,28,0.15
2013-5-29,46,38,33,40,32,30,89,80,67,29.85,29.77,13,4,13,0.07
2013-5-30,45,38,33,37,33,30,90,83,62,29.91,29.84,16,6,16,0.05
2013-5-31,44,39,35,41,36,33,91,89,83,30.00,29.89,23,6,23,0.58
2013-6-1,45,42,40,42,40,38,92,92,90,30.19,29.99,56,8,56,0.09
2013-6-2,48,43,39,42,39,34,91,84,71,30.25,30.16,33,15,33,0.00
2013-6-3,54,45,39,36,32,26,77,61,42,30.24,30.17,37,17,37,0.00
2013-6-4,59,49,38,43,36,31,77,63,48,30.17,30.10,89,11,89,0.00
2013-6-5,64,54,45,50,42,38,80,64,44,30.16,30.10,20,6,20,0.00
2013-6-6,65,57,49,51,46,41,84,65,47,30.21,30.15,23,7,23,0.07
2013-6-7,69,59,51,46,41,37,73,54,34,30.22,30.17,26,6,26,0.01
2013-6-8,68,56,47,49,43,36,90,63,38,30.19,30.03,20,7,20,0.91
2013-6-9,56,47,42,45,42,39,91,83,57,30.07,29.95,16,5,16,0.78
2013-6-10,54,47,43,46,43,39,91,86,69,30.13,29.98,19,4,19,0.15
2013-6-11,60,40,28,46,35,26,90,81,54,30.25,30.13,16,3,16,0.00
2013-6-12,64,55,45,51,46,41,88,72,53,30.30,30.23,18,6,18,0.00
2013-6-13,74,59,46,53,47,41,91,68,34,30.30,30.17,32,8,32,1.32
2013-6-14,61,51,41,50,45,38,91,80,63,30.30,30.17,68,7,68,2.73
2013-6-15,68,58,51,53,48,42,87,69,41,30.22,30.15,24,8,24,0.00
2013-6-16,76,64,50,57,51,42,81,64,43,30.22,30.12,24,7,24,0.00
2013-6-17,82,70,60,56,47,41,80,45,25,30.19,30.08,32,9,32,0.03
2013-6-18,80,71,60,58,52,44,79,53,30,30.18,30.12,25,8,25,0.12
2013-6-19,79,69,60,60,52,42,79,56,32,30.15,30.07,18,6,19,0.00
2013-6-20,64,55,47,53,49,43,91,80,49,30.16,30.07,29,7,29,1.13
2013-6-21,61,52,46,50,44,41,87,74,51,30.25,30.14,19,6,19,0.00
2013-6-22,61,53,45,47,43,40,89,71,53,30.25,30.19,20,6,20,0.00
2013-6-23,53,47,43,46,41,34,90,78,54,30.25,30.18,26,8,26,0.05
2013-6-24,47,42,40,43,38,36,90,86,77,30.35,30.21,23,7,23,0.32
2013-6-25,51,44,39,38,35,30,90,71,47,30.38,30.32,24,10,24,0.00
2013-6-26,56,46,37,40,35,31,88,66,41,30.41,30.34,32,12,32,0.00
2013-6-27,54,44,36,40,35,32,89,71,51,30.38,30.30,28,8,28,0.20
2013-6-28,50,44,37,42,37,32,90,78,56,30.32,30.25,18,4,18,0.01
2013-6-29,50,46,43,48,43,40,91,90,86,30.35,30.27,18,6,18,1.34
2013-6-30,60,51,40,46,42,38,92,73,48,30.35,30.28,24,7,24,0.00
2013-7-1,68,57,46,51,44,39,86,63,39,30.28,30.19,21,7,21,0.00
2013-7-2,70,60,50,50,46,41,88,60,43,30.22,30.13,28,10,28,0.19
2013-7-3,53,51,48,51,48,44,91,89,77,30.22,30.08,41,13,41,1.74
2013-7-4,54,51,48,49,46,45,91,85,73,30.40,30.21,15,6,15,0.00
2013-7-5,66,56,42,52,47,39,91,74,57,30.45,30.39,26,9,26,0.00
2013-7-6,71,61,51,58,50,45,86,67,49,30.42,30.37,24,9,24,0.00
2013-7-7,72,63,54,51,49,46,77,61,41,30.40,30.35,25,9,25,0.00
2013-7-8,74,62,55,60,52,49,90,72,50,30.40,30.34,24,8,24,0.60
2013-7-9,71,63,57,56,52,47,82,68,44,30.35,30.24,18,7,18,0.00
2013-7-10,69,61,57,58,51,46,86,70,50,30.24,30.13,25,8,25,0.40
2013-7-11,70,62,55,56,50,46,78,64,51,30.17,30.11,30,12,30,0.00
2013-7-12,69,60,49,53,46,39,77,60,46,30.23,30.15,23,8,23,0.00
2013-7-13,68,60,54,52,46,42,69,60,49,30.26,30.22,20,8,20,0.00
2013-7-14,71,62,52,55,45,36,71,53,31,30.30,30.24,31,11,31,0.00
2013-7-15,71,62,53,50,45,41,65,54,38,30.32,30.28,28,9,28,0.00
2013-7-16,72,64,55,54,47,41,68,54,38,30.31,30.27,12,5,20,0.00
2013-7-17,72,63,54,52,49,46,79,60,42,30.32,30.27,23,6,23,0.00
2013-7-18,65,59,55,55,49,46,81,70,63,30.30,30.25,18,5,18,0.00
2013-8-4,73,67,61,56,54,52,75,65,49,30.33,30.29,22,8,22,0.00
2013-8-5,78,69,61,58,54,50,73,60,40,30.29,30.19,22,7,22,0.00
2013-8-6,74,66,56,57,52,44,86,61,44,30.24,30.07,21,7,21,0.07
2013-8-7,61,55,50,55,50,47,91,84,67,30.10,30.03,36,7,36,1.90
2013-8-8,61,54,50,54,50,47,91,87,73,30.30,30.06,17,6,17,0.66
2013-8-9,60,54,49,50,46,40,91,76,50,30.34,30.27,20,7,20,0.00
2013-8-10,64,56,47,51,46,42,91,73,50,30.34,30.29,23,6,23,0.00
2013-8-11,64,55,46,49,45,42,91,69,48,30.30,30.24,22,6,22,0.00
2013-8-12,70,60,49,50,45,41,78,60,41,30.25,30.18,22,5,22,0.00
2013-8-13,64,56,49,50,46,40,91,68,48,30.28,30.20,23,8,23,0.00
2013-8-14,60,52,42,44,40,36,83,64,48,30.31,30.24,30,11,30,0.00
2013-8-15,69,56,44,54,44,38,82,65,48,30.30,30.25,37,8,37,0.00
2013-8-16,72,62,53,54,46,40,69,57,43,30.27,30.22,23,7,23,0.00
2013-8-17,70,62,56,54,48,45,74,61,47,30.26,30.22,23,6,23,0.00
2013-8-18,71,63,54,53,48,44,76,60,45,30.25,30.19,38,6,38,0.02
2013-8-19,62,57,48,52,48,41,84,72,51,30.36,30.19,25,8,25,0.01
2013-8-20,64,55,47,46,41,38,79,61,45,30.40,30.34,30,12,30,0.00
2013-8-21,67,57,46,48,41,35,70,56,40,30.34,30.25,22,8,22,0.00
2013-8-22,71,60,51,50,44,37,73,55,35,30.25,30.17,20,7,20,0.00
2013-8-23,73,63,55,49,45,40,70,53,31,30.18,30.14,21,8,21,0.00
2013-8-24,60,55,49,51,48,45,91,77,58,30.15,30.06,18,6,18,1.23
2013-8-25,55,49,44,46,43,39,91,81,59,30.09,30.02,18,6,18,0.36
2013-8-26,57,49,38,46,40,35,91,74,53,30.06,29.99,20,6,20,0.00
2013-8-27,55,49,44,47,44,41,92,85,62,30.11,30.03,15,5,15,1.13
2013-8-28,59,51,43,50,45,41,92,80,62,30.22,30.10,23,10,23,0.00
2013-8-29,64,54,46,50,44,40,84,68,46,30.29,30.20,22,8,22,0.00
2013-8-30,64,55,47,53,45,40,83,69,52,30.31,30.25,20,6,20,0.00
2013-8-31,64,56,50,46,44,41,86,65,46,30.36,30.30,22,7,22,0.00
2013-9-1,61,52,44,47,44,39,89,73,49,30.40,30.32,28,11,28,0.00
2013-9-2,64,54,42,42,36,27,87,54,26,30.44,30.36,31,11,31,0.00
2013-9-3,72,60,49,48,37,22,66,44,31,30.44,30.38,20,8,20,0.00
2013-9-4,76,65,54,50,45,42,64,49,34,30.38,30.28,18,6,18,0.00
2013-9-5,75,66,58,51,46,43,62,49,34,30.28,30.12,21,6,21,0.00
2013-9-6,72,64,55,51,45,42,87,50,38,30.14,30.08,29,8,29,0.08
2013-9-7,64,57,51,54,51,48,91,82,67,30.21,30.13,23,6,23,1.61
2013-9-8,55,50,45,50,47,42,91,88,80,30.28,30.17,24,7,24,0.73
2013-9-9,56,48,42,43,40,35,92,75,49,30.31,30.22,20,7,22,0.06
2013-9-10,52,46,39,46,42,36,91,87,75,30.23,30.16,21,7,21,0.18
2013-9-11,45,41,36,40,38,34,91,88,74,30.21,30.16,18,5,18,0.05
2013-9-12,47,43,41,41,40,38,91,87,71,30.26,30.16,16,5,16,0.10
2013-9-13,56,47,-10,44,39,-17,90,76,53,30.32,30.24,15,4,15,0.00
2013-9-14,56,51,47,49,46,43,91,83,74,30.30,30.08,16,5,16,0.09
2013-9-15,50,47,42,47,44,40,91,90,85,30.09,30.00,24,10,24,0.37
2013-9-16,46,42,38,43,40,35,91,90,85,30.09,29.86,25,10,25,0.22
2013-9-17,43,39,36,38,35,33,91,87,76,29.99,29.91,28,11,28,0.33
2013-9-18,52,47,41,48,45,38,92,90,83,29.98,29.88,52,17,52,1.05
2013-9-19,48,44,40,43,40,37,91,84,68,30.16,29.98,21,6,21,0.01
2013-9-20,58,46,37,48,41,35,92,83,65,30.30,30.14,18,4,18,0.00
2013-9-21,61,50,40,47,41,36,91,73,51,30.40,30.27,23,7,23,0.00
2013-9-22,49,48,48,37,37,36,64,64,62,30.40,30.40,7,1,7,0.00
2013-9-23,66,53,48,51,41,36,89,63,40,30.40,30.25,20,5,20,0.00
2013-9-24,68,57,48,49,42,36,75,57,33,30.25,30.11,21,6,21,0.00
2013-9-25,65,56,49,51,45,37,85,68,54,30.12,30.07,13,5,24,0.01
2013-9-26,66,59,54,55,46,31,90,64,41,30.18,30.10,9,3,16,0.00
2013-9-27,71,61,52,56,49,43,86,67,40,30.15,30.05,9,2,17,0.00
2013-9-28,71,62,54,53,45,41,85,56,34,30.05,29.90,17,4,33,0.01
2013-9-29,57,53,48,49,46,42,91,79,58,29.91,29.82,10,3,20,1.48
2013-9-30,54,50,48,50,47,46,91,89,80,29.92,29.82,6,2,12,0.00
2013-10-1,58,51,47,50,47,44,92,85,64,30.01,29.91,8,3,15,0.00
2013-10-2,66,57,47,49,45,43,89,66,45,30.10,30.01,7,2,15,0.00
2013-10-3,66,62,55,51,48,46,80,60,50,30.19,30.09,39,7,39,0.00
2013-10-4,58,55,51,50,48,46,91,79,68,30.26,30.14,29,8,29,0.37
2013-10-5,52,48,44,48,45,41,91,89,82,30.30,30.13,32,8,32,0.62
2013-10-6,52,46,44,48,43,41,91,89,80,30.30,30.26,29,9,29,0.01
2013-10-7,52,49,42,43,41,39,89,76,69,30.29,30.26,17,5,17,0.00
2013-10-8,52,49,45,43,42,40,89,78,70,30.32,30.27,16,5,16,0.00
2013-10-9,50,46,41,42,41,38,90,84,71,30.31,30.13,67,5,67,0.00
2013-10-10,42,37,30,39,34,27,91,88,72,30.14,29.93,30,9,30,1.04
2013-10-11,36,31,28,31,28,26,92,89,78,30.01,29.91,62,5,62,0.13
2013-10-12,37,34,29,29,28,27,92,82,73,30.05,30.00,9,4,9,0.51
2013-10-13,37,37,37,29,29,29,73,73,73,30.05,30.05,5,0,5,0.51
2013-10-14,49,40,37,48,35,29,97,81,73,30.10,30.05,14,1,14,1.97
2013-10-15,51,48,45,49,47,44,99,97,93,30.09,29.92,10,6,19,2.07
2013-10-16,53,48,43,49,46,43,99,94,80,30.14,29.92,14,3,23,0.29
2013-10-17,58,49,42,49,43,39,92,81,55,30.26,30.14,13,3,55,0.00
2013-10-18,64,51,43,48,40,35,86,65,46,30.19,30.08,9,4,17,0.00
2013-10-19,66,58,49,50,48,41,85,70,56,30.20,30.10,21,7,39,0.00
2013-10-20,58,54,51,49,47,43,84,75,68,30.24,30.13,15,6,32,0.13
2013-10-21,64,56,52,53,50,46,89,79,58,30.24,30.13,16,4,62,0.64
2013-10-22,71,62,52,50,47,44,83,60,38,30.12,29.93,18,8,38,0.00
2013-10-23,65,54,48,51,48,42,91,80,44,30.18,29.95,31,7,49,1.71
2013-10-24,65,54,46,48,44,39,91,71,41,30.21,30.13,9,4,16,0.01
2013-10-25,66,58,50,49,45,41,74,62,47,30.19,30.12,15,7,30,0.00
2013-10-26,69,60,54,53,48,44,87,67,49,30.26,30.17,14,7,29,0.00
2013-10-27,60,55,51,53,49,43,92,78,64,30.23,30.14,24,12,44,1.60
2013-10-28,66,56,43,48,41,35,90,61,35,30.16,29.99,28,10,49,0.20
2013-10-29,50,43,38,42,39,36,91,86,67,30.21,30.09,9,3,15,0.68
2013-10-30,48,41,36,37,34,32,92,78,60,30.29,30.22,14,6,223,0.00
2013-10-31,55,44,37,39,35,31,87,72,50,30.32,30.25,8,4,15,0.00
2013-11-1,54,50,42,46,43,37,84,77,71,30.28,30.04,16,6,39,0.00
2013-11-2,54,51,49,48,45,42,90,81,67,30.05,29.93,21,12,38,2.09
2013-11-3,48,41,36,45,37,32,91,86,77,30.07,29.93,18,8,44,1.42
2013-11-4,43,41,38,40,37,32,90,86,73,29.93,29.55,15,9,37,2.91
2013-11-5,44,38,34,42,34,27,92,88,64,29.86,29.67,17,6,43,0.22
2013-11-6,50,46,42,46,43,39,92,89,82,30.14,29.86,20,8,77,0.23
2013-11-7,55,50,48,47,45,42,90,83,73,30.17,30.09,12,4,24,0.00
2013-11-8,55,50,43,48,44,39,90,80,69,30.09,29.96,17,8,41,1.39
2013-11-9,45,40,34,39,34,28,90,82,59,30.13,29.99,14,6,32,0.24
2013-11-10,41,34,29,38,32,26,91,89,83,30.21,29.74,26,10,60,1.27
2013-11-11,37,32,28,27,24,21,89,75,59,30.31,30.21,20,12,37,0.00
2013-11-12,48,35,26,28,21,12,82,59,30,30.29,30.23,10,4,21,0.00
2013-11-13,46,38,31,28,21,10,84,53,31,30.30,30.26,16,7,30,0.00
2013-11-14,32,31,29,30,28,26,91,89,84,30.25,30.07,31,6,33,0.00
2013-11-15,34,30,29,28,26,23,91,83,68,30.26,29.96,20,4,40,0.00
2013-11-16,46,34,28,34,28,24,90,80,59,30.29,30.22,10,4,21,0.00
2013-11-17,48,36,28,34,30,26,91,78,51,30.23,30.08,9,3,16,0.00
2013-11-18,56,44,38,40,34,30,79,68,44,30.08,29.80,9,3,45,0.00
2013-11-19,45,36,30,35,31,27,91,82,62,29.80,29.73,51,6,84,0.03
2013-11-20,32,29,25,28,26,22,90,89,86,29.77,29.62,29,5,87,0.00
2013-11-21,31,28,25,28,25,23,90,89,87,29.62,29.45,60,3,85,0.00
2013-11-22,32,28,26,28,25,23,90,88,81,29.76,29.55,0,0,139,0.00
2013-11-23,32,30,28,29,28,25,91,90,88,29.86,29.76,0,0,0,0.04
2013-11-24,34,33,32,31,30,27,91,88,82,30.14,29.86,22,7,38,0.00
2013-11-25,32,27,21,28,20,10,89,75,58,30.30,30.14,18,11,39,0.00
2013-11-26,30,25,22,20,16,12,81,69,51,30.33,30.27,22,12,39,0.00
2013-11-27,34,24,20,14,11,6,72,58,33,30.38,30.22,25,9,43,0.00
2013-11-28,36,26,18,27,15,9,85,64,40,30.38,30.33,14,4,24,0.00
2013-11-29,37,31,27,27,24,22,90,77,58,30.35,30.17,16,5,26,0.00
2013-11-30,33,30,28,28,25,18,90,81,62,30.17,30.01,86,10,113,0.00
2013-12-1,36,31,25,21,19,16,76,62,49,30.22,30.15,25,9,48,0.00
2013-12-2,38,32,26,25,20,14,75,61,41,30.32,30.14,20,6,36,0.00
2013-12-3,59,46,29,26,16,6,71,30,16,30.41,30.32,7,2,13,0.00
2013-12-4,54,43,30,30,22,9,82,46,24,30.41,30.35,7,2,13,0.00
2013-12-5,40,32,24,30,26,20,90,78,55,30.37,30.32,13,4,28,0.00
2013-12-6,32,30,24,30,27,20,91,88,78,30.38,30.30,36,9,47,0.00
2013-12-7,40,30,24,29,23,18,86,73,57,30.38,30.31,13,6,32,0.00
2013-12-8,46,36,29,29,21,11,77,55,31,30.44,30.33,7,2,13,0.00
2013-12-9,58,44,36,19,10,5,44,26,14,30.50,30.43,9,3,20,0.00
2013-12-10,58,44,38,19,12,6,37,26,14,30.54,30.47,9,3,15,0.00
2013-12-11,63,49,40,22,8,-3,38,19,12,30.54,30.45,7,2,12,0.00
2013-12-12,46,38,31,31,22,9,78,55,26,30.45,30.36,9,3,19,0.00
2013-12-13,44,36,32,30,28,23,84,71,54,30.37,30.26,9,3,17,0.00
2013-12-14,40,34,30,34,29,23,90,81,67,30.51,30.33,12,3,18,0.03
2013-12-15,57,44,29,23,15,5,75,34,19,30.54,30.47,10,3,18,0.00
2013-12-16,59,50,46,18,13,6,29,22,15,30.53,30.43,8,4,16,0.00
2013-12-17,53,45,38,28,19,10,66,37,20,30.43,30.34,13,4,25,0.00
2013-12-18,45,40,37,33,30,27,74,65,54,30.36,30.08,14,5,27,0.01
2013-12-19,44,39,34,36,34,30,90,81,58,30.08,29.96,24,9,43,2.45
2013-12-20,37,34,30,33,30,27,91,89,82,30.48,30.01,12,2,15,0.12
2013-12-21,48,38,27,38,32,24,91,79,64,30.50,30.40,16,6,30,0.00
2013-12-22,47,44,42,37,35,32,82,71,63,30.40,30.32,22,13,44,0.07
2013-12-23,48,42,39,38,35,27,89,78,56,30.34,30.01,18,9,41,0.16
2013-12-24,52,48,41,32,30,27,67,51,40,30.00,29.56,32,17,57,0.00
2013-12-25,51,39,32,39,32,29,91,79,42,29.56,29.39,98,13,107,1.05
2013-12-26,34,32,31,31,29,27,90,90,88,29.87,29.39,37,4,67,0.00
2013-12-27,41,34,25,35,28,20,90,78,54,29.88,29.82,21,1,65,0.00
2013-12-28,46,38,32,35,30,25,91,74,48,30.01,29.75,60,11,73,0.86
2013-12-29,34,32,31,30,29,28,91,90,87,30.32,30.01,37,13,109,0.00
2013-12-30,37,31,27,29,25,19,91,79,59,30.32,30.22,47,8,63,0.00
2013-12-31,40,36,30,22,20,16,72,52,43,30.22,30.11,9,5,12,0.00
2014-1-1,43,40,40,33,30,20,73,66,46,30.11,29.89,17,9,36,0.00
2014-1-2,42,39,36,36,34,30,89,82,67,29.96,29.80,20,8,134,0.54